{"data":{"norad_id":53840,"intl_designator":"2022-114Y","name":"STARLINK-4766","alt_names":[],"object_type":"PAYLOAD","status":"ACTIVE","operator":null,"country":"US","launch_date":"2022-09-19","launch_site_code":"AFETR","launch_vehicle":null,"mission":null,"orbit_class":"UNKNOWN","rcs_meters":null,"size_class":null,"mass_kg":null,"dimensions":null,"purposes":["comms"],"wikipedia_slug":null,"has_3d_model":false,"image_url":null,"decayed_at":null,"tle_current":{"epoch":"2026-05-25T03:35:42.429696Z","epoch_age_seconds":68981,"freshness":"FRESH","line1":"1 53840U 22114Y   26145.14979664 -.00000839  00000+0 -34600-4 0  9992","line2":"2 53840  53.2125 310.9357 0001607  92.1081 268.0095 15.08842859204515","mean_motion":15.08842859,"eccentricity":0.0001607,"inclination_deg":53.2125,"raan_deg":310.9357,"arg_perigee_deg":92.1081,"mean_anomaly_deg":268.0095,"bstar":-3.46e-5,"rev_number":20451,"period_min":95.437373839869,"perigee_km":538.62294818448,"apogee_km":540.84635213284,"semimajor_km":6917.8716501587,"source":"CELESTRAK","updated_at":"2026-05-25T13:38:17.573832Z"}}}